Flag for Chile Weather past 2 weeks in Valdivia, Chile

Now
46 °F

Light rain. Overcast.


Feels Like: 41 °F
Forecast: 46 / 56 °F
Wind: 10 mph from Northeast

Location: Puerto Montt Airport

Current Time: Aug 4, 2015 at 2:48:00 AM

Latest Report: Aug 4, 2015 at 2:00 AM


Visibility: 5 mi

Pressure: 29.92 "Hg

Humidity: 87%

Dew point: 43 °F

Location of ValdiviaLocation

Historic Weather in Valdivia — Graph

°F

Valdivia temperature yesterday

Maximum temperature yesterday: 52 °F (at 5:00 PM)
Minimum temperature yesterday: 39 °F (at 9:00 AM)
Average temperature yesterday: 46 °F

Past Weeks' High & Low Weather Summary

 TemperatureHumidityPressure
High57 °F (Jul 29, 3:00 PM)100% (Jul 20, 4:00 AM)30.48 "Hg (Jul 20, 4:00 AM)
Low32 °F (Jul 20, 2:00 AM)59% (Jul 31, 4:00 PM)29.45 "Hg (Jul 26, 12:00 AM)
Average48 °F88%29.90 "Hg
* Reported Jul 20 2:00 AM — Aug 4 2:00 AM, Valdivia, Weather by CustomWeather, © 2015

Note: Actual official high and low records may vary slightly from our data, if they occured in-between our weather recording intervals... More about our weather records

Advertising

Valdivia weather history for previous 24 hours

 ConditionsComfort  
Time TempWeatherWind HumidityBarometerVisibility
2:00 AM
Tue, Aug 4
46 °FLight rain. Overcast.10 mph87%29.92 "Hg5 mi
1:00 AM48 °FLight rain. Overcast.14 mph82%29.95 "Hg4 mi
12:00 AM48 °FOvercast.8 mph76%29.95 "HgN/A
11:00 PM
Mon, Aug 3
48 °FOvercast.6 mph82%29.98 "HgN/A
10:00 PM46 °FMostly cloudy.6 mph87%30.01 "HgN/A
9:00 PM46 °FPartly cloudy.No wind87%30.01 "HgN/A
8:00 PM48 °FClear.3 mph82%30.01 "Hg10 mi
7:00 PM48 °FOvercast.3 mph82%30.01 "HgN/A
6:00 PM50 °FMostly cloudy.6 mph76%30.01 "HgN/A
5:00 PM52 °FMore clouds than sun.9 mph72%30.04 "HgN/A
4:00 PM50 °FPartly sunny.9 mph76%30.04 "HgN/A
3:00 PM50 °FPartly sunny.8 mph76%30.07 "HgN/A
2:00 PM50 °FPartly sunny.9 mph76%30.09 "HgN/A
1:00 PM50 °FPartly sunny.10 mph76%30.09 "HgN/A
12:00 PM48 °FSunny.9 mph82%30.12 "Hg10 mi
11:00 AM45 °FPassing clouds.6 mph87%30.12 "HgN/A
10:00 AM41 °FScattered clouds.5 mph93%30.12 "HgN/A
9:00 AM39 °FScattered clouds.5 mph93%30.12 "HgN/A
8:00 AM41 °FScattered clouds.7 mph93%30.09 "HgN/A
7:00 AM41 °FPassing clouds.6 mph93%30.09 "HgN/A
6:00 AM41 °FPassing clouds.6 mph93%30.07 "HgN/A
5:00 AM41 °FPassing clouds.3 mph93%30.07 "HgN/A
4:00 AM43 °FPartly cloudy.6 mph93%30.07 "HgN/A
3:00 AM43 °FPassing clouds.6 mph93%30.07 "HgN/A
2:00 AM43 °FPassing clouds.6 mph93%30.04 "HgN/A
Weather by CustomWeather, © 2015

See weather overviewHow to use our weather pages